N3EG Weather Reports


time (UTC)temp
F
wind
direction
speed
knots
gust
knots
rain 1hr
in
rain 24hr
in
rain mn
in
humidity
%
barometer
mb
20260506215002 62 331 5.2 8.7 0.00 0.00 0.00 74 1022.1
20260506214503 62 325 4.3 8.7 0.00 0.00 0.00 74 1022.1
20260506214002 62 278 1.7 8.7 0.00 0.00 0.00 75 1022.1
20260506213502 62 294 3.5 8.7 0.00 0.00 0.00 76 1022.1
20260506213003 62 315 4.3 8.7 0.00 0.00 0.00 75 1022.1
20260506212502 62 337 5.2 8.7 0.00 0.00 0.00 75 1022.1
20260506212002 62 323 5.2 8.7 0.00 0.00 0.00 74 1022.1
20260506211503 62 316 4.3 8.7 0.00 0.00 0.00 74 1022.1
20260506211002 62 311 3.5 8.7 0.00 0.00 0.00 75 1022.1
20260506210502 62 304 2.6 9.6 0.00 0.00 0.00 75 1022.0
20260506210003 62 329 5.2 9.6 0.00 0.00 0.00 74 1022.1
20260506205502 62 286 2.6 7.8 0.00 0.00 0.00 75 1022.0
20260506205002 62 279 1.7 7.8 0.00 0.00 0.00 76 1022.0
20260506204503 62 294 2.6 7.8 0.00 0.00 0.00 75 1022.0
20260506204002 62 299 3.5 7.8 0.00 0.00 0.00 76 1022.0
20260506203502 62 328 4.3 7.8 0.00 0.00 0.00 75 1022.0
20260506203003 61 292 3.5 9.6 0.00 0.00 0.00 76 1022.0
20260506202502 61 331 5.2 9.6 0.00 0.00 0.00 75 1022.0
20260506202002 61 328 4.3 8.7 0.00 0.00 0.00 75 1022.0
20260506201503 62 319 3.5 8.7 0.00 0.00 0.00 77 1022.1
20260506201002 61 277 1.7 8.7 0.00 0.00 0.00 78 1022.1
20260506200503 61 292 2.6 7.0 0.00 0.00 0.00 77 1022.0
20260506200003 60 297 2.6 7.8 0.00 0.00 0.00 78 1022.1
20260506195502 60 310 1.7 7.8 0.00 0.00 0.00 78 1022.1
20260506195003 60 324 2.6 7.8 0.00 0.00 0.00 79 1022.1
20260506194503 60 315 1.7 7.8 0.00 0.00 0.00 78 1022.0
20260506194002 60 302 1.7 5.2 0.00 0.00 0.00 78 1022.1
20260506193503 60 291 1.7 7.0 0.00 0.00 0.00 77 1022.1
20260506193003 60 290 2.6 8.7 0.00 0.00 0.00 79 1022.0
20260506192502 59 281 2.6 8.7 0.00 0.00 0.00 78 1022.1
20260506192003 59 319 2.6 7.0 0.00 0.00 0.00 78 1022.1
20260506191503 59 322 3.5 7.0 0.00 0.00 0.00 77 1022.0
20260506191002 60 322 3.5 7.0 0.00 0.00 0.00 77 1021.9
20260506190503 60 305 2.6 6.1 0.00 0.00 0.00 77 1021.9
20260506190003 59 316 1.7 6.1 0.00 0.00 0.00 77 1021.9
20260506185502 59 304 2.6 7.8 0.00 0.00 0.00 76 1021.8
20260506185003 59 288 1.7 7.8 0.00 0.00 0.00 77 1022.1
20260506184503 59 296 3.5 7.8 0.00 0.00 0.00 77 1022.0
20260506184002 60 282 1.7 5.2 0.00 0.00 0.00 77 1022.0
20260506183503 59 327 0.9 7.0 0.00 0.00 0.00 78 1022.0
20260506183003 59 315 3.5 7.0 0.00 0.00 0.00 76 1021.9
20260506182502 60 295 1.7 7.0 0.00 0.00 0.00 77 1021.9
20260506182003 59 318 2.6 7.0 0.00 0.00 0.00 79 1021.9
20260506181502 59 305 1.7 5.2 0.00 0.00 0.00 78 1021.9
20260506181003 59 292 1.7 7.0 0.00 0.00 0.00 79 1021.9
20260506180503 58 312 1.7 7.0 0.00 0.00 0.00 79 1021.8
20260506180003 58 266 0.9 7.0 0.00 0.00 0.00 79 1021.9
20260506175503 58 301 1.7 7.0 0.00 0.00 0.00 80 1021.9
20260506175003 58 324 0.9 5.2 0.00 0.00 0.00 80 1021.9
20260506174502 58 324 1.7 5.2 0.00 0.00 0.00 80 1021.9
20260506174003 58 321 2.6 6.1 0.00 0.00 0.00 80 1021.8
20260506173503 58 309 2.6 6.1 0.00 0.00 0.00 80 1021.8
20260506173002 58 288 1.7 4.3 0.00 0.00 0.00 80 1021.8
20260506172503 58 318 1.7 3.5 0.00 0.00 0.00 81 1021.7
20260506172003 58 297 0.9 3.5 0.00 0.00 0.00 80 1021.7
20260506171502 58 231 0.9 2.6 0.00 0.00 0.00 81 1021.5
20260506171003 58 96 0.9 1.7 0.00 0.00 0.00 82 1021.6
20260506170502 58 249 0.9 1.7 0.00 0.00 0.00 82 1021.5
20260506170003 58 153 0.9 1.7 0.00 0.00 0.00 81 1021.5
20260506165502 58 251 0.9 1.7 0.00 0.00 0.00 81 1021.6
20260506165002 58 200 0.9 2.6 0.00 0.00 0.00 81 1021.6
20260506164503 57 237 0.9 2.6 0.00 0.00 0.00 80 1021.5
20260506164002 57 240 0.9 2.6 0.00 0.00 0.00 81 1021.5
20260506163502 57 217 0.9 1.7 0.00 0.00 0.00 81 1021.5
20260506163003 57 244 0.9 2.6 0.00 0.00 0.00 82 1021.4
20260506162502 57 284 0.9 3.5 0.00 0.00 0.00 81 1021.4
20260506162002 57 254 0.9 4.3 0.00 0.00 0.00 81 1021.5
20260506161503 57 330 1.7 7.0 0.00 0.00 0.00 81 1021.5
20260506161002 57 330 2.6 7.0 0.00 0.00 0.00 81 1021.6
20260506160503 57 302 1.7 4.3 0.00 0.00 0.00 81 1021.5
20260506160003 57 292 2.6 4.3 0.00 0.00 0.00 81 1021.6
20260506155502 57 294 0.9 4.3 0.00 0.00 0.00 82 1021.5
20260506155003 57 302 0.9 4.3 0.00 0.00 0.00 82 1021.4
20260506154502 57 293 0.9 4.3 0.00 0.00 0.00 83 1021.3
20260506154002 56 315 1.7 5.2 0.00 0.00 0.00 83 1021.4
20260506153503 56 308 2.6 5.2 0.00 0.00 0.00 83 1021.4
20260506153002 56 321 1.7 7.8 0.00 0.00 0.00 82 1021.4
20260506152502 56 318 1.7 7.8 0.00 0.00 0.00 82 1021.2
20260506152003 56 317 2.6 5.2 0.00 0.00 0.00 82 1021.3
20260506151502 56 312 2.6 4.3 0.00 0.00 0.00 83 1021.3
20260506151002 56 245 0.9 2.6 0.00 0.00 0.00 83 1021.0
20260506150503 56 269 1.7 3.5 0.00 0.00 0.00 83 1021.0
20260506150002 56 227 0.0 3.5 0.00 0.00 0.00 83 1020.9
20260506145503 56 271 0.9 2.6 0.00 0.00 0.00 84 1020.8
20260506145003 56 272 0.9 2.6 0.00 0.00 0.00 84 1020.6
20260506144502 55 240 0.9 1.7 0.00 0.00 0.00 85 1020.7
20260506144002 55 257 0.0 1.7 0.00 0.00 0.00 86 1020.8
20260506143503 55 259 0.0 1.7 0.00 0.00 0.00 86 1020.8
20260506143002 55 263 0.0 1.7 0.00 0.00 0.00 87 1020.9
20260506142503 55 258 0.9 1.7 0.00 0.00 0.00 87 1021.2
20260506142003 55 249 0.0 1.7 0.00 0.00 0.00 86 1021.1
20260506141502 55 279 0.0 2.6 0.00 0.00 0.00 87 1021.0
20260506141002 55 274 0.9 2.6 0.00 0.00 0.00 87 1021.1
20260506140503 55 309 0.0 3.5 0.00 0.00 0.00 87 1021.1
20260506140002 55 282 0.9 3.5 0.00 0.00 0.00 86 1021.0
20260506135503 55 297 1.7 3.5 0.00 0.00 0.00 87 1020.9
20260506135003 55 228 0.0 1.7 0.00 0.00 0.00 87 1020.9
20260506134502 55 271 0.0 2.6 0.00 0.00 0.00 87 1020.9
20260506134002 55 271 0.0 2.6 0.00 0.00 0.00 87 1020.8
20260506133503 55 255 0.9 2.6 0.00 0.00 0.00 88 1020.8
20260506133002 54 256 0.0 2.6 0.00 0.00 0.00 88 1020.7
20260506132502 55 267 0.9 2.6 0.00 0.00 0.00 88 1020.6
20260506132003 55 273 0.0 1.7 0.00 0.00 0.00 88 1020.5
20260506131502 55 278 0.0 1.7 0.00 0.00 0.00 88 1020.3
20260506131003 55 275 0.0 0.9 0.00 0.00 0.00 88 1020.4
20260506130503 55 275 0.0 1.7 0.00 0.00 0.00 88 1020.5
20260506130002 55 273 0.9 1.7 0.00 0.00 0.00 88 1020.4
20260506125503 55 231 0.0 1.7 0.00 0.00 0.00 88 1020.3
20260506125002 55 226 0.0 1.7 0.00 0.00 0.00 88 1020.2
20260506124502 55 225 0.0 2.6 0.00 0.00 0.00 88 1020.1
20260506124003 55 231 0.9 3.5 0.00 0.00 0.00 88 1020.2
20260506123503 55 256 0.9 3.5 0.00 0.00 0.00 88 1020.1
20260506123002 55 208 0.9 2.6 0.00 0.00 0.00 88 1020.1
20260506122503 55 200 0.9 2.6 0.00 0.00 0.00 88 1020.0
20260506122003 55 301 0.9 2.6 0.00 0.00 0.00 88 1020.1
20260506121502 55 266 0.9 2.6 0.00 0.00 0.00 88 1020.0
20260506121003 55 196 0.0 2.6 0.00 0.00 0.00 88 1020.0
20260506120503 55 197 0.9 2.6 0.00 0.00 0.00 88 1020.0
20260506120002 55 201 0.0 1.7 0.00 0.00 0.00 88 1020.0
20260506115503 55 201 0.0 1.7 0.00 0.00 0.00 88 1020.0
20260506115002 55 225 0.0 1.7 0.00 0.00 0.00 88 1020.0
20260506114502 55 220 0.9 1.7 0.00 0.00 0.00 88 1020.0
20260506114003 55 218 0.9 1.7 0.00 0.00 0.00 88 1019.9
20260506113502 55 218 0.0 1.7 0.00 0.00 0.00 88 1019.9
20260506113002 55 232 0.0 1.7 0.00 0.00 0.00 88 1019.9
20260506112503 55 271 0.0 1.7 0.00 0.00 0.00 88 1019.9
20260506112002 55 265 0.0 2.6 0.00 0.00 0.00 88 1020.0
20260506111502 55 246 0.0 2.6 0.00 0.00 0.00 88 1019.9
20260506111003 55 281 0.9 1.7 0.00 0.00 0.00 87 1020.0
20260506110502 55 272 0.0 1.7 0.00 0.00 0.00 87 1019.9
20260506110002 55 271 0.0 1.7 0.00 0.00 0.00 87 1019.9
20260506105503 55 272 0.0 1.7 0.00 0.00 0.00 87 1019.8
20260506105002 55 255 0.0 1.7 0.00 0.00 0.00 87 1019.7
20260506104503 55 246 0.0 1.7 0.00 0.00 0.00 87 1019.7
20260506104003 55 246 0.0 1.7 0.00 0.00 0.00 87 1019.6
20260506103502 55 246 0.0 2.6 0.00 0.00 0.00 87 1019.6
20260506103003 55 272 0.9 2.6 0.00 0.00 0.00 87 1019.5
20260506102503 55 264 0.0 1.7 0.00 0.00 0.00 87 1019.4
20260506102002 55 317 0.0 3.5 0.00 0.00 0.00 87 1019.5
20260506101503 56 318 1.7 3.5 0.00 0.00 0.00 87 1019.4
20260506101003 55 283 0.9 2.6 0.00 0.00 0.00 87 1019.4
20260506100502 56 241 0.9 2.6 0.00 0.00 0.00 87 1019.3
20260506100003 56 211 0.9 1.7 0.00 0.00 0.00 87 1019.2
20260506095503 56 202 0.0 1.7 0.00 0.00 0.00 87 1019.2
20260506095002 56 249 0.9 2.6 0.00 0.00 0.00 87 1019.1
20260506094503 56 254 0.9 2.6 0.00 0.00 0.00 87 1019.1
20260506094002 56 239 0.9 5.2 0.00 0.00 0.00 87 1019.0
20260506093502 56 297 2.6 6.1 0.00 0.00 0.00 87 1019.0
20260506093003 56 294 2.6 6.1 0.00 0.00 0.00 87 1019.0
20260506092502 56 292 1.7 3.5 0.00 0.00 0.00 87 1019.0
20260506092002 56 300 0.0 3.5 0.00 0.00 0.00 87 1018.9
20260506091503 56 295 0.9 3.5 0.00 0.00 0.00 87 1018.8
20260506091002 56 313 1.7 5.2 0.00 0.00 0.00 87 1018.8
20260506090502 56 321 2.6 5.2 0.00 0.00 0.00 87 1018.8
20260506090003 56 296 1.7 3.5 0.00 0.00 0.00 87 1018.7
20260506085502 56 253 0.9 3.5 0.00 0.00 0.00 87 1018.8
20260506085003 56 279 0.9 2.6 0.00 0.00 0.00 87 1018.9
20260506084503 56 315 0.0 2.6 0.00 0.00 0.00 88 1018.8
20260506084002 56 256 0.0 0.9 0.00 0.00 0.00 88 1018.8
20260506083503 56 256 0.0 1.7 0.00 0.00 0.00 88 1018.7
20260506083003 56 264 0.0 1.7 0.00 0.00 0.00 88 1018.7
20260506082502 56 323 0.9 1.7 0.00 0.00 0.00 88 1018.7
20260506082003 56 325 0.0 2.6 0.00 0.00 0.00 88 1018.7
20260506081503 56 299 1.7 2.6 0.00 0.00 0.00 88 1018.7
20260506081002 56 259 0.9 1.7 0.00 0.00 0.00 88 1018.6
20260506080503 56 261 0.9 1.7 0.00 0.00 0.00 88 1018.6
20260506073503 56 267 0.0 1.7 0.00 0.00 0.00 87 1018.4
20260506073002 56 266 0.9 1.7 0.00 0.00 0.00 87 1018.3
20260506072502 56 258 0.0 1.7 0.00 0.00 0.00 87 1018.2
20260506072003 56 259 0.9 4.3 0.00 0.00 0.00 87 1018.2
20260506071502 56 255 0.9 4.3 0.00 0.00 0.00 87 1018.1
20260506071003 56 254 0.0 2.6 0.00 0.00 0.00 87 1018.2
20260506070503 56 178 0.9 2.6 0.00 0.00 0.00 87 1018.2
20260506062503 56 164 0.9 1.7 0.00 0.00 0.00 87 1017.8
20260506062002 56 164 0.0 1.7 0.00 0.00 0.00 87 1017.8
20260506061503 56 164 0.9 1.7 0.00 0.00 0.00 87 1017.7
20260506061003 56 135 0.9 1.7 0.00 0.00 0.00 87 1017.8
20260506060502 56 271 0.9 1.7 0.00 0.00 0.00 87 1017.9
20260506051003 56 215 0.9 7.0 0.00 0.00 0.00 85 1017.7
20260506050502 56 239 0.9 7.0 0.00 0.00 0.00 85 1017.7
20260506045004 56 190 0.9 3.5 0.00 0.00 0.00 85 1017.6
20260506044502 56 273 0.9 3.5 0.00 0.00 0.00 85 1017.6
20260506044002 56 210 1.7 5.2 0.00 0.00 0.00 85 1017.6
20260506043503 56 238 1.7 5.2 0.00 0.00 0.00 85 1017.5
20260506043003 56 285 2.6 6.1 0.00 0.00 0.00 85 1017.4
20260506042502 56 267 1.7 7.0 0.00 0.00 0.00 85 1017.3
20260506042003 56 234 0.9 7.0 0.00 0.00 0.00 85 1017.2
20260506041502 56 282 0.9 3.5 0.00 0.00 0.00 84 1017.1
20260506041002 57 217 0.0 2.6 0.00 0.00 0.00 84 1016.9
20260506040503 57 256 0.9 4.3 0.00 0.00 0.00 84 1016.9
20260506040003 57 280 0.9 4.3 0.00 0.00 0.00 83 1016.8
20260506035502 57 306 0.0 5.2 0.00 0.00 0.00 83 1016.8
20260506035003 57 297 1.7 5.2 0.00 0.00 0.00 83 1016.7
20260506034502 58 296 2.6 9.6 0.00 0.00 0.00 82 1016.6
20260506034003 58 294 2.6 9.6 0.00 0.00 0.00 82 1016.5
20260506033503 58 301 2.6 8.7 0.00 0.00 0.00 82 1016.5
20260506033002 58 286 1.7 8.7 0.00 0.00 0.00 81 1016.4
20260506032503 59 293 1.7 8.7 0.00 0.00 0.00 81 1016.4
20260506032003 59 293 3.5 8.7 0.00 0.00 0.00 81 1016.3
20260506031502 59 286 2.6 7.8 0.00 0.00 0.00 80 1016.3
20260506031002 59 289 0.9 3.5 0.00 0.00 0.00 80 1016.3
20260506030503 60 269 0.9 4.3 0.00 0.00 0.00 80 1016.2
20260506030002 60 302 2.6 5.2 0.00 0.00 0.00 79 1016.1
20260506025502 60 287 0.9 5.2 0.00 0.00 0.00 79 1016.1
20260506025003 61 274 0.9 5.2 0.00 0.00 0.00 78 1016.1
20260506024502 61 297 0.9 6.1 0.00 0.00 0.00 78 1016.0
20260506024003 61 299 2.6 6.1 0.00 0.00 0.00 77 1015.9
20260506023503 61 280 0.9 5.2 0.00 0.00 0.00 77 1015.9
20260506023002 62 302 1.7 5.2 0.00 0.00 0.00 77 1015.8
20260506022503 62 271 0.9 7.0 0.00 0.00 0.00 77 1015.8
20260506022003 62 299 1.7 7.0 0.00 0.00 0.00 77 1015.8
20260506021502 62 281 0.9 6.1 0.00 0.00 0.00 77 1015.9
20260506021003 63 284 1.7 6.1 0.00 0.00 0.00 77 1015.9
20260506020503 63 292 0.0 5.2 0.00 0.00 0.00 76 1015.9
20260506020002 63 277 0.9 7.8 0.00 0.00 0.00 76 1015.8
20260506015503 63 310 3.5 7.8 0.00 0.00 0.00 76 1015.8
20260506015003 63 296 2.6 7.0 0.00 0.00 0.00 75 1015.9
20260506014502 63 306 1.7 7.0 0.00 0.00 0.00 76 1015.9
20260506014003 64 282 1.7 7.0 0.00 0.00 0.00 75 1015.8
20260506013503 64 307 1.7 7.0 0.00 0.00 0.00 75 1015.7
20260506013002 64 292 2.6 7.8 0.00 0.00 0.00 74 1015.8
20260506012503 64 311 3.5 7.8 0.00 0.00 0.00 73 1015.8
20260506012003 65 307 2.6 7.0 0.00 0.00 0.00 73 1015.7
20260506011502 65 284 0.9 7.0 0.00 0.00 0.00 73 1015.6
20260506011003 66 314 3.5 7.0 0.00 0.00 0.00 72 1015.6
20260506010503 66 309 2.6 7.0 0.00 0.00 0.00 72 1015.7
20260506010002 66 281 1.7 5.2 0.00 0.00 0.00 72 1015.7
20260506005503 66 306 1.7 5.2 0.00 0.00 0.00 73 1015.8
20260506005003 65 338 0.9 3.5 0.00 0.00 0.00 75 1015.6
20260506004503 65 312 1.7 4.3 0.00 0.00 0.00 74 1015.8
20260506004003 65 311 0.9 4.3 0.00 0.00 0.00 76 1015.9
20260506003502 65 336 2.6 4.3 0.00 0.00 0.00 74 1015.8
20260506003002 64 243 1.7 4.3 0.00 0.00 0.00 75 1015.9
20260506002503 64 297 2.6 5.2 0.00 0.00 0.00 75 1015.9
20260506002002 64 332 2.6 5.2 0.00 0.00 0.00 75 1015.9
20260506001502 64 320 1.7 5.2 0.00 0.00 0.00 75 1016.0
20260506001003 64 324 2.6 5.2 0.00 0.00 0.00 76 1016.1
20260506000502 64 311 2.6 5.2 0.00 0.00 0.00 75 1016.1
20260506000002 64 321 2.6 5.2 0.00 0.00 0.00 76 1016.0
20260505235503 64 310 1.7 5.2 0.00 0.00 0.00 75 1016.1
20260505235002 64 321 2.6 7.0 0.00 0.00 0.00 76 1016.1
20260505234503 64 314 1.7 7.0 0.00 0.00 0.00 75 1016.2
20260505234003 64 327 1.7 4.3 0.00 0.00 0.00 76 1016.2
20260505233502 64 304 0.9 7.0 0.00 0.00 0.00 75 1016.2
20260505233003 64 341 3.5 7.0 0.00 0.00 0.00 75 1016.3
20260505232503 64 329 1.7 3.5 0.00 0.00 0.00 75 1016.3
20260505232002 64 308 2.6 3.5 0.00 0.00 0.00 74 1016.4
20260505231503 64 283 0.9 4.3 0.00 0.00 0.00 74 1016.4
20260505231003 64 311 1.7 4.3 0.00 0.00 0.00 75 1016.5
20260505230502 64 317 1.7 7.0 0.00 0.00 0.00 75 1016.6
20260505230003 64 323 2.6 7.0 0.00 0.00 0.00 75 1016.5
20260505225502 64 342 1.7 4.3 0.00 0.00 0.00 75 1016.5
20260505225002 64 288 0.9 9.6 0.00 0.00 0.00 74 1016.6
20260505224503 64 280 1.7 9.6 0.00 0.00 0.00 75 1016.7
20260505224002 64 301 3.5 5.2 0.00 0.00 0.00 76 1016.6
20260505223503 64 299 1.7 7.0 0.00 0.00 0.00 75 1016.7
20260505223002 64 309 3.5 7.0 0.00 0.00 0.00 76 1016.7
20260505222502 64 283 1.7 7.0 0.00 0.00 0.00 75 1016.8
20260505222003 64 330 2.6 7.0 0.00 0.00 0.00 75 1016.7
20260505221502 64 318 2.6 7.0 0.00 0.00 0.00 75 1016.9
20260505221002 64 293 1.7 5.2 0.00 0.00 0.00 75 1016.9
20260505220503 64 325 2.6 5.2 0.00 0.00 0.00 75 1016.9
20260505220002 63 283 1.7 5.2 0.00 0.00 0.00 73 1017.0
20260505215502 63 313 1.7 5.2 0.00 0.00 0.00 75 1017.0